Wind_Speed
23 23 22 21 20 18 16 15 14 14 14 15 16 17 19 20 20 22 24 29 35 38 38 36 35 35 34 32 31 30 30 28 27 25 25 23 23 23 23 22 21 22 22
24 22 22 22 22 21 20 18 17 16 16 16 16 17 18 19 20 21 22 25 29 33 36 36 36 35 34 33 32 33 33 32 30 29 28 27 26 26 26 25 24 23 23
23 21 21 22 23 23 23 22 20 19 18 18 17 18 19 19 19 20 21 22 24 28 32 35 35 35 34 33 33 33 33 33 33 32 32 30 29 29 29 28 26 25 25
21 20 21 21 22 23 23 23 23 22 21 20 20 20 20 21 21 20 20 21 23 26 29 31 33 35 35 35 34 35 35 35 34 34 35 34 33 32 31 30 28 26 26
21 21 21 22 22 23 23 23 23 23 22 22 22 21 22 22 22 22 22 22 23 24 26 28 31 33 35 36 36 36 36 36 36 35 36 36 34 34 33 31 28 26 26
21 23 23 23 23 23 22 22 23 23 23 24 24 23 24 24 25 25 24 24 25 25 25 26 28 30 33 35 37 37 37 36 35 35 34 33 34 34 34 31 28 26 26
22 23 23 23 23 23 22 22 23 23 24 24 25 25 25 25 26 26 27 27 26 26 26 27 27 28 29 32 35 36 37 36 35 35 33 32 33 33 33 31 28 27 27
22 23 23 23 24 24 24 24 24 24 24 25 25 26 26 26 27 27 28 28 27 27 26 26 27 28 28 28 31 34 35 36 36 35 34 34 33 32 31 30 29 30 29
23 23 24 25 26 26 26 26 26 25 25 25 25 26 26 27 28 28 28 28 28 27 26 26 27 28 28 27 27 30 32 34 34 35 35 35 34 33 32 31 31 32 31
24 25 25 25 25 25 25 25 25 26 26 25 25 26 27 27 28 28 29 29 29 28 27 26 26 26 26 27 27 27 28 32 33 34 36 37 36 34 33 33 33 33 33
23 23 23 22 22 21 22 22 23 24 26 26 27 27 28 28 29 28 29 30 30 29 27 26 24 24 24 25 26 27 27 28 31 34 35 37 36 35 34 35 35 34 33
21 20 19 19 18 18 18 19 20 22 25 27 29 30 30 29 28 28 29 29 29 28 27 26 24 23 23 24 25 26 27 27 28 31 34 36 36 36 35 35 35 36 35
18 17 16 15 15 15 15 16 18 21 23 26 28 30 30 29 28 27 28 28 28 27 26 25 24 22 22 22 23 23 25 26 26 28 30 33 36 36 36 37 37 37 37
16 14 13 13 13 14 15 16 17 19 21 23 26 27 28 29 28 26 25 26 26 25 24 23 23 22 22 21 21 22 22 23 24 26 28 31 34 37 38 39 39 39 39
13 12 12 12 13 14 14 15 16 17 16 16 18 20 22 24 24 23 23 22 23 22 21 20 21 21 22 22 22 21 21 22 23 24 25 28 32 35 39 41 42 43 42
12 12 11 11 12 13 14 14 15 14 13 9 8 10 12 15 17 18 19 19 19 18 18 18 19 20 21 22 23 23 23 22 22 23 24 26 29 32 35 38 41 43 43
12 12 11 10 11 12 12 13 13 13 12 8 3 1 4 8 10 12 14 15 16 16 16 17 18 19 21 22 23 23 23 22 22 22 23 24 26 28 32 34 37 39 41
13 12 11 9 9 10 11 12 12 12 11 9 6 4 2 3 5 7 8 10 11 13 14 16 18 20 21 22 23 23 23 23 23 23 24 24 25 26 27 29 32 35 37
13 12 10 9 9 9 10 11 11 11 10 8 6 4 3 1 2 4 6 8 10 12 14 16 17 19 20 21 21 22 23 24 25 26 26 27 27 28 29 29 30 31 33
12 11 10 9 9 9 10 10 10 10 10 9 7 6 3 2 1 3 5 7 9 11 12 14 16 17 18 20 21 22 24 25 26 27 28 29 29 30 31 32 33 33 33
12 11 10 10 9 10 10 10 10 10 9 9 8 7 6 4 3 2 3 5 7 9 11 13 14 15 16 18 19 20 21 22 23 24 25 27 29 31 32 34 35 35 36
12 11 11 11 11 11 12 12 12 11 11 11 10 9 8 7 6 5 4 3 4 6 7 9 11 12 14 16 17 18 19 19 20 20 21 23 25 27 28 30 32 34 35
12 12 12 12 12 13 13 14 14 14 14 13 13 12 11 10 9 8 7 6 5 6 7 8 9 10 11 12 14 14 15 16 16 17 18 20 21 22 23 24 26 28 30
12 12 13 13 13 13 14 14 14 14 14 14 14 14 13 12 12 11 10 9 9 8 8 7 7 6 6 7 8 9 11 12 13 15 16 16 17 17 17 18 20 22 24
12 12 13 13 14 14 14 14 15 15 15 15 15 15 15 15 15 14 13 13 12 11 11 10 9 8 7 7 7 8 9 10 11 12 14 15 15 16 16 16 17 19 20
11 11 12 13 13 14 14 15 15 16 16 16 17 18 18 18 18 18 17 17 16 16 15 15 14 13 12 11 10 10 11 11 12 13 15 15 16 16 17 17 18 19 20
Wind_Direction
299 295 289 281 275 272 270 269 270 270 269 266 263 262 259 256 253 251 245 241 238 236 234 232 233 234 236 244 247 246 246 245 246 247 245 244 251 253 251 250 251 252 252
299 294 288 282 276 273 271 270 271 272 272 270 265 263 260 256 253 250 248 244 239 235 232 230 231 233 238 244 248 247 246 244 245 248 250 250 252 254 254 253 252 253 253
295 290 286 282 278 276 273 272 272 272 273 271 267 261 256 253 250 249 245 242 238 234 233 232 232 233 239 244 247 246 245 246 246 249 253 254 253 254 254 254 254 255 255
288 284 283 282 281 279 276 274 273 271 270 268 265 258 252 249 247 245 242 240 239 240 240 239 238 240 242 244 245 246 246 248 249 251 253 254 253 252 252 253 254 256 256
283 281 281 282 282 281 278 274 271 268 265 263 261 256 250 247 245 244 244 244 244 244 246 246 245 245 244 245 246 247 248 249 252 254 254 252 251 251 250 251 253 254 253
281 281 282 282 282 281 279 275 270 266 262 259 257 255 251 248 246 247 248 248 248 248 250 250 250 249 247 246 246 247 247 249 252 254 253 252 250 248 247 248 248 248 248
285 284 284 283 283 282 280 276 272 267 261 259 257 255 252 250 249 249 250 250 249 250 251 251 251 250 249 247 247 247 247 248 249 249 249 249 247 246 244 243 242 243 246
288 288 287 285 283 282 279 275 271 267 263 260 257 255 252 250 249 248 247 247 247 247 248 248 249 250 251 249 248 247 247 247 247 247 245 245 244 244 242 239 239 242 245
293 291 290 287 285 283 279 275 272 268 264 261 257 255 252 250 249 248 246 245 244 245 246 247 249 250 250 251 250 247 246 245 245 244 242 240 240 240 238 235 238 242 246
296 295 293 291 288 284 280 275 270 267 263 261 259 256 253 252 251 249 247 245 244 245 247 248 248 249 251 251 253 251 247 244 243 242 241 239 238 237 235 235 238 242 246
300 299 297 295 292 288 283 277 272 268 264 261 259 257 256 255 253 251 250 248 247 248 250 250 250 250 252 253 254 256 253 248 244 245 244 241 239 236 235 235 238 241 245
306 303 301 299 298 295 290 284 279 273 268 263 260 258 256 255 254 250 247 246 247 249 251 252 252 253 253 255 256 258 260 257 252 249 246 243 240 237 235 236 237 241 244
314 310 307 306 306 305 302 296 291 284 276 269 263 259 256 253 252 248 244 244 246 248 251 252 252 252 253 255 258 260 261 262 260 254 249 245 242 238 237 238 239 241 245
320 316 314 314 314 315 313 310 306 298 287 276 265 257 253 250 249 247 241 241 243 246 249 249 249 250 251 254 257 261 263 265 265 259 253 248 245 241 239 239 240 242 245
327 325 323 322 323 324 324 325 324 319 309 289 267 255 248 244 242 238 235 237 239 240 242 244 245 247 250 253 258 261 265 269 269 264 257 252 249 246 244 243 242 243 245
338 337 333 331 332 335 337 339 340 340 335 319 281 253 241 235 231 231 230 230 231 233 237 241 245 248 251 254 257 261 265 268 269 265 261 256 252 249 247 246 246 246 246
345 344 343 342 342 345 350 354 356 357 1 6 9 257 217 211 214 216 218 220 224 228 234 242 247 251 254 256 258 259 262 266 268 267 265 261 259 256 253 252 251 250 249
348 347 346 347 348 349 355 0 3 6 10 19 33 53 98 165 190 199 209 221 230 236 242 248 252 255 258 260 260 260 262 265 268 269 269 267 265 263 261 260 258 256 255
354 353 352 350 350 352 357 2 6 11 16 21 26 38 59 110 185 211 226 236 244 248 251 253 256 259 261 262 262 263 265 267 270 271 270 268 267 265 264 263 261 260 259
3 4 3 2 0 0 3 8 13 16 20 25 28 31 33 29 268 245 245 248 251 254 256 258 261 263 263 263 263 264 267 269 270 270 270 268 266 265 264 262 261 261 260
14 15 16 17 19 20 22 24 26 27 28 29 31 33 33 30 10 320 284 274 271 270 269 269 269 268 267 266 266 267 269 271 272 272 272 271 269 266 264 263 261 259 258
25 28 31 35 38 41 42 42 43 43 43 44 46 48 47 46 41 32 14 343 315 300 293 287 283 279 277 275 272 272 273 274 275 277 278 278 276 273 269 266 263 260 258
36 41 46 50 53 55 55 55 55 55 55 55 56 56 55 52 49 42 32 18 358 338 324 314 306 295 289 284 280 277 277 278 279 281 285 287 286 282 277 272 268 263 260
49 55 58 61 63 64 63 62 62 61 60 60 59 57 53 49 45 40 35 28 20 10 359 351 343 331 318 308 296 291 290 290 291 292 293 295 295 292 287 280 275 270 266
60 66 69 70 70 70 69 68 67 65 63 61 60 59 57 54 52 49 46 45 43 41 40 37 33 28 21 8 349 334 323 315 310 307 305 302 300 297 293 288 283 277 272
68 73 74 73 71 70 69 67 66 65 63 62 62 61 60 59 58 57 56 55 55 54 53 50 47 43 37 29 18 6 352 340 330 321 315 311 307 301 296 291 287 282 274
Height
5789 5787 5786 5786 5785 5785 5785 5784 5784 5784 5784 5784 5784 5783 5783 5783 5783 5783 5783 5785 5787 5792 5796 5801 5805 5809 5813 5815 5818 5820 5823 5826 5827 5829 5831 5833 5835 5836 5836 5838 5839 5840 5841
5784 5782 5781 5780 5780 5780 5780 5780 5780 5779 5779 5779 5779 5779 5779 5778 5779 5779 5779 5780 5782 5785 5789 5794 5798 5802 5806 5808 5811 5813 5816 5819 5821 5823 5824 5827 5830 5830 5831 5832 5834 5835 5836
5779 5777 5776 5775 5775 5774 5774 5774 5774 5774 5774 5774 5774 5774 5774 5774 5774 5774 5775 5776 5778 5780 5783 5787 5790 5794 5798 5801 5803 5806 5809 5812 5815 5817 5818 5820 5823 5824 5825 5827 5828 5829 5830
5773 5772 5771 5770 5769 5769 5768 5768 5768 5767 5767 5768 5768 5768 5769 5769 5769 5770 5771 5772 5774 5776 5778 5780 5783 5786 5790 5793 5796 5799 5801 5804 5807 5809 5811 5813 5815 5817 5819 5820 5822 5823 5824
5769 5767 5766 5765 5764 5763 5762 5761 5761 5760 5760 5761 5761 5762 5763 5764 5764 5765 5766 5767 5768 5770 5772 5774 5776 5778 5781 5784 5787 5790 5793 5796 5798 5800 5802 5804 5807 5809 5811 5813 5815 5816 5817
5763 5762 5761 5759 5758 5757 5756 5755 5754 5753 5754 5754 5754 5755 5756 5757 5758 5759 5760 5761 5762 5764 5765 5767 5769 5770 5773 5776 5778 5781 5785 5787 5789 5792 5794 5796 5799 5801 5803 5806 5808 5810 5811
5758 5756 5754 5752 5751 5750 5749 5748 5747 5746 5746 5747 5747 5748 5749 5750 5751 5753 5754 5755 5756 5757 5759 5760 5762 5763 5765 5767 5770 5772 5776 5778 5781 5783 5786 5788 5790 5793 5796 5799 5801 5803 5804
5751 5749 5747 5745 5744 5742 5741 5740 5739 5739 5739 5739 5740 5740 5741 5743 5744 5745 5746 5747 5749 5750 5752 5754 5755 5757 5758 5760 5762 5764 5767 5769 5772 5775 5778 5780 5782 5785 5789 5792 5794 5795 5796
5744 5742 5740 5738 5736 5735 5733 5732 5731 5731 5731 5731 5731 5732 5733 5734 5735 5737 5738 5740 5741 5743 5745 5746 5748 5750 5751 5753 5755 5757 5759 5761 5763 5766 5769 5771 5774 5777 5780 5784 5786 5787 5788
5738 5735 5733 5731 5729 5726 5725 5724 5723 5722 5722 5722 5723 5724 5725 5726 5727 5728 5730 5732 5734 5736 5737 5739 5741 5743 5744 5746 5748 5749 5750 5751 5754 5756 5759 5762 5765 5768 5772 5775 5777 5779 5781
5732 5729 5726 5724 5721 5719 5717 5716 5715 5714 5714 5714 5714 5715 5716 5717 5719 5720 5722 5724 5726 5728 5730 5732 5734 5736 5737 5739 5741 5742 5742 5743 5745 5747 5750 5753 5756 5760 5763 5766 5769 5771 5773
5726 5723 5720 5717 5715 5713 5710 5709 5707 5706 5705 5705 5705 5706 5707 5708 5710 5711 5713 5716 5718 5720 5722 5725 5727 5729 5731 5732 5734 5734 5735 5736 5737 5739 5741 5744 5748 5751 5754 5757 5760 5762 5765
5721 5718 5715 5712 5710 5708 5705 5703 5701 5699 5697 5696 5696 5696 5697 5699 5701 5703 5705 5708 5710 5713 5715 5718 5720 5722 5724 5726 5727 5728 5729 5729 5730 5732 5733 5736 5739 5742 5745 5748 5751 5754 5756
5717 5714 5711 5709 5706 5704 5701 5698 5695 5691 5688 5686 5685 5686 5687 5689 5692 5694 5697 5700 5703 5706 5708 5711 5713 5716 5718 5720 5721 5722 5722 5723 5723 5724 5725 5727 5730 5732 5735 5738 5741 5744 5747
5714 5711 5708 5705 5703 5700 5697 5693 5689 5685 5680 5677 5676 5676 5678 5681 5684 5687 5690 5694 5697 5700 5702 5705 5707 5710 5712 5714 5715 5716 5716 5717 5717 5717 5718 5719 5720 5723 5725 5728 5731 5734 5736
5711 5708 5705 5703 5700 5697 5694 5690 5686 5682 5677 5673 5671 5672 5673 5675 5678 5682 5685 5689 5692 5695 5698 5700 5703 5705 5707 5708 5709 5710 5711 5711 5710 5711 5711 5712 5712 5714 5716 5718 5720 5723 5725
5709 5706 5703 5701 5698 5696 5692 5689 5685 5681 5677 5674 5672 5672 5672 5674 5676 5679 5682 5685 5688 5691 5694 5696 5698 5700 5701 5702 5703 5704 5705 5705 5705 5705 5705 5705 5705 5706 5707 5708 5710 5712 5714
5707 5704 5702 5699 5697 5695 5692 5689 5686 5682 5680 5677 5675 5674 5674 5675 5676 5678 5681 5683 5685 5688 5690 5692 5693 5694 5695 5696 5697 5697 5698 5699 5699 5699 5699 5699 5699 5699 5699 5700 5701 5702 5703
5706 5703 5700 5698 5696 5694 5692 5689 5687 5684 5681 5679 5678 5677 5676 5677 5678 5679 5680 5682 5683 5685 5686 5688 5689 5689 5690 5691 5691 5691 5692 5692 5692 5692 5692 5691 5691 5691 5691 5691 5692 5693 5693
5705 5702 5700 5698 5696 5694 5692 5690 5687 5685 5683 5681 5680 5678 5678 5678 5678 5679 5680 5680 5681 5682 5683 5683 5684 5684 5685 5685 5685 5685 5685 5685 5684 5684 5683 5683 5682 5682 5682 5682 5682 5683 5683
5705 5703 5701 5699 5697 5695 5693 5691 5688 5686 5684 5683 5681 5680 5679 5679 5678 5678 5678 5679 5679 5679 5679 5679 5679 5679 5679 5679 5679 5678 5678 5678 5677 5675 5674 5673 5672 5672 5671 5671 5671 5672 5672
5707 5705 5702 5700 5699 5697 5695 5693 5691 5688 5686 5685 5683 5682 5681 5680 5679 5679 5678 5678 5677 5677 5676 5675 5675 5674 5673 5673 5673 5672 5672 5671 5670 5668 5667 5665 5663 5662 5661 5660 5660 5660 5660
5709 5707 5705 5703 5701 5699 5697 5696 5694 5692 5690 5688 5686 5684 5683 5682 5681 5680 5679 5678 5676 5675 5674 5673 5671 5670 5669 5668 5667 5667 5666 5665 5664 5663 5661 5659 5656 5654 5652 5651 5650 5650 5650
5712 5710 5708 5706 5704 5703 5701 5699 5697 5695 5693 5691 5690 5688 5686 5685 5683 5681 5680 5678 5676 5675 5673 5671 5669 5667 5666 5665 5664 5663 5662 5661 5659 5658 5656 5653 5651 5648 5646 5644 5643 5642 5642
5715 5713 5712 5710 5708 5706 5705 5703 5701 5699 5698 5696 5694 5692 5690 5688 5686 5684 5682 5680 5678 5676 5673 5671 5669 5667 5666 5664 5663 5661 5659 5658 5656 5653 5651 5649 5646 5644 5641 5639 5638 5636 5635
5719 5717 5715 5714 5712 5711 5709 5707 5705 5703 5702 5700 5698 5696 5694 5692 5690 5688 5685 5683 5681 5678 5676 5674 5672 5669 5667 5665 5663 5661 5658 5656 5653 5650 5647 5645 5642 5639 5636 5634 5632 5630 5628